Location: Newark
(35.2672°N, 80.7344°W)
Time: 15:35:25
(UTC+00:00)

Explorer 7 - All Passes

Search period start: 19 January 2020 00:00
Search period end: 29 January 2020 00:00
Orbit: 485 x 679 km, 50.3° (Epoch: 19 January)

Date Brightness Start Highest point End Pass type
(mag) Time Alt. Az. Time Alt. Az. Time Alt. Az.
19 Jan - 04:29:28 10° S 04:32:06 18° SE 04:34:45 10° E night (unlit)
19 Jan - 06:08:41 10° WSW 06:12:18 46° NW 06:15:58 10° NE night (unlit)
19 Jan - 07:51:57 10° NW 07:53:34 12° NNW 07:55:13 10° N night (unlit)
19 Jan - 11:14:15 10° NNW 11:17:22 21° NNE 11:20:37 10° ENE visible
19 Jan - 12:54:03 10° NW 12:58:12 74° SW 13:02:37 10° SE daylight
20 Jan - 04:33:28 10° SSW 04:36:53 33° SE 04:40:17 10° ENE night (unlit)
20 Jan - 06:14:04 10° W 06:17:21 28° NNW 06:20:41 10° NNE night (unlit)
20 Jan - 09:40:13 10° N 09:40:57 10° NNE 09:41:42 10° NNE visible
20 Jan - 11:18:54 10° NNW 11:22:29 29° NNE 11:26:15 10° E visible
20 Jan - 12:59:08 10° WNW 13:03:04 42° SW 13:07:14 10° SSE daylight
21 Jan - 04:37:59 10° SW 04:41:44 65° SE 04:45:26 10° NE night (unlit)
21 Jan - 06:19:41 10° WNW 06:22:28 19° NNW 06:25:18 10° NNE night (unlit)
21 Jan - 09:44:27 10° N 09:46:16 13° NNE 09:48:06 10° NE visible
21 Jan - 11:23:38 10° NW 11:27:31 45° NE 11:31:39 10° ESE visible
21 Jan - 13:04:30 10° WNW 13:07:53 24° SW 13:11:26 10° S daylight
22 Jan - 03:05:02 10° SSE 03:06:36 12° SE 03:08:08 10° ESE night (unlit)
22 Jan - 04:42:53 10° WSW 04:46:38 68° NW 04:50:22 10° NE night (unlit)
22 Jan - 06:25:34 10° NW 06:27:41 14° NNW 06:29:49 10° NNE night (unlit)
22 Jan - 09:48:57 10° NNW 09:51:30 16° NNE 09:54:08 10° ENE visible
22 Jan - 11:28:27 10° NW 11:32:30 77° NE 11:36:47 10° SE visible
22 Jan - 13:10:31 10° W 13:12:39 14° SW 13:14:49 10° SSW daylight
23 Jan - 03:08:19 10° S 03:11:20 22° SE 03:14:19 10° ENE night (unlit)
23 Jan - 04:48:04 10° WSW 04:51:38 39° NW 04:55:10 10° NE night (unlit)
23 Jan - 06:31:47 10° NNW 06:32:57 11° NNW 06:34:08 10° N night (unlit)
23 Jan - 09:53:31 10° NNW 09:56:40 22° NNE 09:59:57 10° E visible
23 Jan - 11:33:24 10° WNW 11:37:23 61° SW 11:41:38 10° SE visible
24 Jan - 03:12:31 10° SSW 03:16:08 41° SE 03:19:41 10° ENE night (unlit)
24 Jan - 04:53:32 10° W 04:56:41 25° NNW 04:59:51 10° NNE night (unlit)
24 Jan - 08:19:31 10° N 08:20:20 10° NNE 08:21:08 10° NNE night (unlit)
24 Jan - 09:58:11 10° NNW 10:01:45 32° NNE 10:05:30 10° E visible
24 Jan - 11:38:34 10° WNW 11:42:15 34° SW 11:46:07 10° SSE visible
25 Jan - 03:17:11 10° SW 03:21:00 80° SE 03:24:45 10° NE night (unlit)
25 Jan - 04:59:14 10° WNW 05:01:50 17° NNW 05:04:26 10° NNE night (unlit)
25 Jan - 08:23:43 10° N 08:25:36 13° NNE 08:27:32 10° NE night (unlit)
25 Jan - 10:02:56 10° NW 10:06:47 52° NE 10:10:50 10° ESE visible
25 Jan - 11:44:06 10° W 11:47:03 19° SW 11:50:05 10° S visible
26 Jan - 01:43:28 10° SSE 01:45:47 15° SE 01:48:04 10° E night (unlit)
26 Jan - 03:22:10 10° WSW 03:25:55 56° NW 03:29:38 10° NE night (unlit)
26 Jan - 05:05:14 10° NW 05:07:03 13° NNW 05:08:53 10° N night (unlit)
26 Jan - 08:28:12 10° NNW 08:30:49 17° NNE 08:33:32 10° ENE night (unlit)
26 Jan - 10:07:47 10° NW 10:11:43 90° S 10:15:53 10° SE visible
26 Jan - 11:51:01 10° WSW 11:51:47 10° SW 11:52:34 10° SW visible
27 Jan - 01:47:12 10° SSW 01:50:33 28° SE 01:53:49 10° ENE night (unlit)
27 Jan - 03:27:26 10° W 03:30:57 33° NNW 03:34:23 10° NNE night (unlit)
27 Jan - 05:11:45 10° NNW 05:12:20 10° NNW 05:12:56 10° N night (unlit)
27 Jan - 08:32:47 10° NNW 08:35:59 24° NNE 08:39:17 10° E night (unlit)
27 Jan - 10:12:48 10° WNW 10:16:36 49° SW 10:20:37 10° SSE visible
28 Jan - 01:51:34 10° SSW 01:55:23 52° SE 01:59:04 10° ENE night (unlit)
28 Jan - 03:32:58 10° W 03:36:02 22° NNW 03:39:02 10° NNE night (unlit)
28 Jan - 06:58:41 10° N 06:59:42 11° NNE 07:00:42 10° NNE night (unlit)
28 Jan - 08:37:27 10° NW 08:41:03 36° NE 08:44:46 10° ESE night (unlit)
28 Jan - 10:18:04 10° WNW 10:21:26 27° SW 10:24:57 10° S visible
